W9IF-4 Weather Reports


Display with metric or nautical units.
time (UTC)temp
F
wind
direction
speed
MPH
gust
MPH
rain 1hr
in
rain 24hr
in
rain mn
in
humidity
%
barometer
mb
20140802002252 77 287 8.0 0.0 0.00 0.00 0.00 1015.3
20140802002152 77 295 7.0 0.0 0.00 0.00 0.00 1015.3
20140802002052 78 293 9.0 0.0 0.00 0.00 0.00 1015.3
20140802001955 79 263 7.0 0.0 0.00 0.00 0.00 1015.4
20140802001752 78 253 8.0 0.0 0.00 0.00 0.00 1015.5
20140802001652 78 277 8.0 0.0 0.00 0.00 0.00 1015.5
20140802001554 77 260 8.0 0.0 0.00 0.00 0.00 1015.6
20140802001352 76 274 6.0 0.0 0.00 0.00 0.00 1015.6
20140802001252 76 250 7.0 0.0 0.00 0.00 0.00 1015.7
20140802001152 77 259 7.0 0.0 0.00 0.00 0.00 1015.7
20140802001053 77 276 7.0 0.0 0.00 0.00 0.00 1015.7
20140802000952 77 270 7.0 0.0 0.00 0.00 0.00 1015.7
20140802000852 77 277 7.0 0.0 0.00 0.00 0.00 1015.7
20140802000752 77 274 6.0 0.0 0.00 0.00 0.00 1015.7
20140802000652 77 257 7.0 0.0 0.00 0.00 0.00 1015.7
20140802000552 76 321 4.0 0.0 0.00 0.00 0.00 1015.7
20140802000452 77 307 6.0 0.0 0.00 0.00 0.00 1015.7
20140802000352 77 330 5.0 0.0 0.00 0.00 0.00 1015.7
20140802000252 77 293 6.0 0.0 0.00 0.00 0.00 1015.7
20140802000052 77 302 6.0 0.0 0.00 0.00 0.00 1015.8
20140801235952 78 278 7.0 0.0 0.00 0.00 0.00 1015.7
20140801235852 78 309 7.0 0.0 0.00 0.00 0.00 1015.7
20140801235752 78 295 3.0 0.0 0.00 0.00 0.00 1015.8
20140801235652 78 278 5.0 0.0 0.00 0.00 0.00 1015.7
20140801235352 77 278 6.0 0.0 0.00 0.00 0.00 1015.5
20140801235152 78 260 6.0 0.0 0.00 0.00 0.00 1015.5
20140801235052 78 215 6.0 0.0 0.00 0.00 0.00 1015.5
20140801234952 79 257 8.0 0.0 0.00 0.00 0.00 1015.4
20140801234852 78 262 8.0 0.0 0.00 0.00 0.00 1015.4
20140801234752 77 253 10.0 0.0 0.00 0.00 0.00 1015.5
20140801234652 75 278 8.0 0.0 0.00 0.00 0.00 1015.5
20140801234552 76 257 8.0 0.0 0.00 0.00 0.00 1015.5
20140801234452 77 248 8.0 0.0 0.00 0.00 0.00 1015.5
20140801234352 79 264 10.0 0.0 0.00 0.00 0.00 1015.5
20140801234252 79 269 8.0 0.0 0.00 0.00 0.00 1015.6
20140801234152 78 240 9.0 0.0 0.00 0.00 0.00 1015.5
20140801234053 78 252 8.0 0.0 0.00 0.00 0.00 1015.5
20140801233952 79 266 9.0 0.0 0.00 0.00 0.00 1015.6
20140801233852 78 257 8.0 0.0 0.00 0.00 0.00 1015.5
20140801233752 79 269 9.0 0.0 0.00 0.00 0.00 1015.5
20140801233552 78 260 9.0 0.0 0.00 0.00 0.00 1015.5
20140801233452 79 243 11.0 0.0 0.00 0.00 0.00 1015.6
20140801233352 79 277 8.0 0.0 0.00 0.00 0.00 1015.6
20140801233252 78 280 7.0 0.0 0.00 0.00 0.00 1015.6
20140801233152 77 284 8.0 0.0 0.00 0.00 0.00 1015.7
20140801233052 77 267 8.0 0.0 0.00 0.00 0.00 1015.6
20140801232952 77 273 6.0 0.0 0.00 0.00 0.00 1015.7
20140801232852 78 274 8.0 0.0 0.00 0.00 0.00 1015.7
20140801232652 78 264 9.0 0.0 0.00 0.00 0.00 1015.7
20140801232552 78 242 7.0 0.0 0.00 0.00 0.00 1015.7
20140801232352 78 274 10.0 0.0 0.00 0.00 0.00 1015.7
20140801232252 79 270 9.0 0.0 0.00 0.00 0.00 1015.7
20140801232152 79 281 9.0 0.0 0.00 0.00 0.00 1015.7
20140801232052 78 253 8.0 0.0 0.00 0.00 0.00 1015.7
20140801231952 78 287 10.0 0.0 0.00 0.00 0.00 1015.7
20140801231852 78 257 9.0 0.0 0.00 0.00 0.00 1015.7
20140801231752 78 290 10.0 0.0 0.00 0.00 0.00 1015.7
20140801231652 78 263 6.0 0.0 0.00 0.00 0.00 1015.7
20140801231552 77 274 11.0 0.0 0.00 0.00 0.00 1015.8
20140801231452 77 259 12.0 0.0 0.00 0.00 0.00 1015.8
20140801231352 77 287 10.0 0.0 0.00 0.00 0.00 1015.8
20140801231252 78 288 11.0 0.0 0.00 0.00 0.00 1015.8
20140801231052 79 283 12.0 0.0 0.00 0.00 0.00 1015.9
20140801230952 79 250 10.0 0.0 0.00 0.00 0.00 1015.9
20140801230852 79 263 11.0 0.0 0.00 0.00 0.00 1015.9
20140801230752 78 248 8.0 0.0 0.00 0.00 0.00 1015.9
20140801230652 77 285 7.0 0.0 0.00 0.00 0.00 1016.0
20140801230552 77 280 10.0 0.0 0.00 0.00 0.00 1016.0
20140801230452 79 281 8.0 0.0 0.00 0.00 0.00 1016.0
20140801230352 78 307 10.0 0.0 0.00 0.00 0.00 1016.0
20140801230152 77 270 8.0 0.0 0.00 0.00 0.00 1016.0
20140801230052 78 287 8.0 0.0 0.00 0.00 0.00 1016.0
20140801225952 78 271 10.0 0.0 0.00 0.00 0.00 1016.0
20140801225852 79 281 11.0 0.0 0.00 0.00 0.00 1016.0
20140801225752 79 264 11.0 0.0 0.00 0.00 0.00 1016.0
20140801225652 78 252 9.0 0.0 0.00 0.00 0.00 1016.2
20140801225552 79 285 10.0 0.0 0.00 0.00 0.00 1016.2
20140801225352 79 267 10.0 0.0 0.00 0.00 0.00 1016.3
20140801225252 79 294 6.0 0.0 0.00 0.00 0.00 1016.4
20140801225152 79 250 8.0 0.0 0.00 0.00 0.00 1016.3
20140801225052 80 270 10.0 0.0 0.00 0.00 0.00 1016.3
20140801224952 79 236 8.0 0.0 0.00 0.00 0.00 1016.3
20140801224852 79 263 10.0 0.0 0.00 0.00 0.00 1016.4
20140801224552 80 301 7.0 0.0 0.00 0.00 0.00 1016.5
20140801224352 78 264 8.0 0.0 0.00 0.00 0.00 1016.4
20140801224152 77 284 9.0 0.0 0.00 0.00 0.00 1016.4
20140801223852 78 294 9.0 0.0 0.00 0.00 0.00 1016.4
20140801223752 79 288 10.0 0.0 0.00 0.00 0.00 1016.4
20140801223552 79 270 6.0 0.0 0.00 0.00 0.00 1016.4
20140801223452 78 264 10.0 0.0 0.00 0.00 0.00 1016.4
20140801223352 79 298 9.0 0.0 0.00 0.00 0.00 1016.4
20140801223253 79 277 10.0 0.0 0.00 0.00 0.00 1016.4
20140801223152 79 298 8.0 0.0 0.00 0.00 0.00 1016.4
20140801223052 79 256 9.0 0.0 0.00 0.00 0.00 1016.4
20140801222952 80 270 11.0 0.0 0.00 0.00 0.00 1016.4
20140801222852 79 293 10.0 0.0 0.00 0.00 0.00 1016.5
20140801222752 80 283 9.0 0.0 0.00 0.00 0.00 1016.5
20140801222552 79 245 8.0 0.0 0.00 0.00 0.00 1016.5
20140801222452 78 284 10.0 0.0 0.00 0.00 0.00 1016.5
20140801222352 78 263 10.0 0.0 0.00 0.00 0.00 1016.5
20140801222252 79 263 11.0 0.0 0.00 0.00 0.00 1016.5
20140801221852 78 259 10.0 0.0 0.00 0.00 0.00 1016.5
20140801221752 79 276 9.0 0.0 0.00 0.00 0.00 1016.5
20140801221652 78 294 5.0 0.0 0.00 0.00 0.00 1016.5
20140801221552 80 273 8.0 0.0 0.00 0.00 0.00 1016.5
20140801221452 80 259 8.0 0.0 0.00 0.00 0.00 1016.5
20140801221252 78 278 10.0 0.0 0.00 0.00 0.00 1016.4
20140801221152 78 270 12.0 0.0 0.00 0.00 0.00 1016.4
20140801220952 79 262 10.0 0.0 0.00 0.00 0.00 1016.3
20140801220852 79 271 10.0 0.0 0.00 0.00 0.00 1016.4
20140801220752 79 253 6.0 0.0 0.00 0.00 0.00 1016.3
20140801220552 78 276 11.0 0.0 0.00 0.00 0.00 1016.3
20140801220452 78 277 11.0 0.0 0.00 0.00 0.00 1016.3
20140801220352 77 288 11.0 0.0 0.00 0.00 0.00 1016.3
20140801220252 78 284 10.0 0.0 0.00 0.00 0.00 1016.4
20140801220152 77 266 9.0 0.0 0.00 0.00 0.00 1016.4
20140801220052 78 276 8.0 0.0 0.00 0.00 0.00 1016.4
20140801215952 78 285 7.0 0.0 0.00 0.00 0.00 1016.5
20140801215852 77 257 9.0 0.0 0.00 0.00 0.00 1016.5
20140801215752 77 266 9.0 0.0 0.00 0.00 0.00 1016.5
20140801215552 78 285 8.0 0.0 0.00 0.00 0.00 1016.5
20140801215453 77 264 9.0 0.0 0.00 0.00 0.00 1016.5
20140801215352 79 250 10.0 0.0 0.00 0.00 0.00 1016.5
20140801215152 78 307 9.0 0.0 0.00 0.00 0.00 1016.5
20140801215052 79 278 10.0 0.0 0.00 0.00 0.00 1016.4
20140801214952 79 269 12.0 0.0 0.00 0.00 0.00 1016.4
20140801214852 79 255 9.0 0.0 0.00 0.00 0.00 1016.4
20140801214752 78 263 9.0 0.0 0.00 0.00 0.00 1016.5
20140801214652 79 266 10.0 0.0 0.00 0.00 0.00 1016.5
20140801214552 79 274 5.0 0.0 0.00 0.00 0.00 1016.5
20140801214452 79 277 10.0 0.0 0.00 0.00 0.00 1016.5
20140801214352 80 236 9.0 0.0 0.00 0.00 0.00 1016.5
20140801214052 79 257 9.0 0.0 0.00 0.00 0.00 1016.6
20140801213952 80 269 9.0 0.0 0.00 0.00 0.00 1016.6
20140801213852 79 253 10.0 0.0 0.00 0.00 0.00 1016.6
20140801213652 80 245 7.0 0.0 0.00 0.00 0.00 1016.6
20140801213552 80 264 8.0 0.0 0.00 0.00 0.00 1016.6
20140801213452 80 259 8.0 0.0 0.00 0.00 0.00 1016.6
20140801213352 80 266 8.0 0.0 0.00 0.00 0.00 1016.6
20140801213152 79 252 7.0 0.0 0.00 0.00 0.00 1016.6
20140801213052 78 240 6.0 0.0 0.00 0.00 0.00 1016.6
20140801212952 78 250 9.0 0.0 0.00 0.00 0.00 1016.6
20140801212852 78 266 9.0 0.0 0.00 0.00 0.00 1016.6
20140801212652 79 245 9.0 0.0 0.00 0.00 0.00 1016.6
20140801212552 78 283 8.0 0.0 0.00 0.00 0.00 1016.6
20140801212352 78 255 9.0 0.0 0.00 0.00 0.00 1016.6
20140801212252 77 285 9.0 0.0 0.00 0.00 0.00 1016.5
20140801212152 78 271 7.0 0.0 0.00 0.00 0.00 1016.5
20140801212052 78 281 9.0 0.0 0.00 0.00 0.00 1016.5
20140801211952 79 269 9.0 0.0 0.00 0.00 0.00 1016.4
20140801211752 79 277 8.0 0.0 0.00 0.00 0.00 1016.4
20140801211652 79 276 9.0 0.0 0.00 0.00 0.00 1016.4
20140801211452 80 250 11.0 0.0 0.00 0.00 0.00 1016.4
20140801211152 78 245 7.0 0.0 0.00 0.00 0.00 1016.3
20140801211052 78 262 9.0 0.0 0.00 0.00 0.00 1016.2
20140801210852 78 274 12.0 0.0 0.00 0.00 0.00 1016.2
20140801210752 78 256 8.0 0.0 0.00 0.00 0.00 1016.2
20140801210652 78 257 10.0 0.0 0.00 0.00 0.00 1016.2
20140801210552 78 271 11.0 0.0 0.00 0.00 0.00 1016.2
20140801210452 78 287 10.0 0.0 0.00 0.00 0.00 1016.2
20140801210252 79 240 9.0 0.0 0.00 0.00 0.00 1016.3
20140801210152 79 264 11.0 0.0 0.00 0.00 0.00 1016.3
20140801210052 79 263 7.0 0.0 0.00 0.00 0.00 1016.3
20140801205952 78 277 10.0 0.0 0.00 0.00 0.00 1016.3
20140801205752 78 242 7.0 0.0 0.00 0.00 0.00 1016.4
20140801205652 77 243 7.0 0.0 0.00 0.00 0.00 1016.4
20140801205552 77 259 10.0 0.0 0.00 0.00 0.00 1016.4
20140801205352 78 256 10.0 0.0 0.00 0.00 0.00 1016.5
20140801205152 79 253 10.0 0.0 0.00 0.00 0.00 1016.4
20140801205052 79 266 11.0 0.0 0.00 0.00 0.00 1016.5
20140801204952 79 253 9.0 0.0 0.00 0.00 0.00 1016.5
20140801204852 78 264 10.0 0.0 0.00 0.00 0.00 1016.5
20140801204752 78 283 8.0 0.0 0.00 0.00 0.00 1016.5
20140801204652 77 255 10.0 0.0 0.00 0.00 0.00 1016.5
20140801204552 78 252 12.0 0.0 0.00 0.00 0.00 1016.5
20140801204452 79 255 11.0 0.0 0.00 0.00 0.00 1016.5
20140801204352 80 243 12.0 0.0 0.00 0.00 0.00 1016.5
20140801204152 80 245 11.0 0.0 0.00 0.00 0.00 1016.6
20140801203657 80 260 8.0 0.0 0.00 0.00 0.00 1016.6
20140801203557 81 256 10.0 0.0 0.00 0.00 0.00 1016.6
20140801203457 81 250 9.0 0.0 0.00 0.00 0.00 1016.6
20140801203357 83 276 11.0 0.0 0.00 0.00 0.00 1016.7
20140801203257 82 253 11.0 0.0 0.00 0.00 0.00 1016.7
20140801203157 82 269 8.0 0.0 0.00 0.00 0.00 1016.6
20140801203057 82 284 9.0 0.0 0.00 0.00 0.00 1016.7
20140801202757 79 238 9.0 0.0 0.00 0.00 0.00 1016.6
20140801202657 80 259 10.0 0.0 0.00 0.00 0.00 1016.7
20140801202557 81 249 11.0 0.0 0.00 0.00 0.00 1016.6
20140801202457 81 250 10.0 0.0 0.00 0.00 0.00 1016.6
20140801202357 81 263 9.0 0.0 0.00 0.00 0.00 1016.6